WS6A-13 Weather Reports


Display with metric or nautical units.
time (UTC)temp
F
wind
direction
speed
MPH
gust
MPH
rain 1hr
in
rain 24hr
in
rain mn
in
humidity
%
barometer
mb
20260902103004 72 123 0.0 0.0 0.00 0.00 0.00 93 1015.3
20260902101504 72 123 0.0 0.0 0.00 0.00 0.00 93 1015.2
20260902100004 72 123 0.0 0.0 0.00 0.00 0.00 93 1015.1
20260902094504 72 123 0.0 0.0 0.00 0.00 0.00 93 1015.1
20260902091504 72 123 0.0 0.0 0.00 0.00 0.00 93 1015.1
20260902090005 72 123 0.0 0.0 0.00 0.00 0.00 93 1014.9
20260902084504 72 123 0.0 0.0 0.00 0.00 0.00 92 1014.9
20260902081504 73 123 0.0 0.0 0.00 0.00 0.00 92 1014.7
20260902080004 73 123 0.0 0.0 0.00 0.00 0.00 92 1014.5
20260902074504 73 123 0.0 0.0 0.00 0.00 0.00 92 1014.5
20260902073004 73 123 0.0 0.0 0.00 0.00 0.00 92 1014.6
20260902071504 73 123 0.0 0.0 0.00 0.00 0.00 92 1014.5
20260902070006 73 123 0.0 0.0 0.00 0.00 0.00 91 1014.6
20260902064503 74 123 0.0 0.0 0.00 0.00 0.00 91 1014.6
20260902063004 74 123 0.0 0.0 0.00 0.00 0.00 91 1014.5
20260902060024 74 123 0.0 0.0 0.00 0.00 0.00 90 1014.5
20260902054504 74 123 0.0 0.0 0.00 0.00 0.00 90 1014.5
20260902053004 74 123 0.0 0.0 0.00 0.00 0.00 90 1014.5
20260902051504 74 123 0.0 0.0 0.00 0.00 0.00 90 1014.5
20260902050007 75 123 0.0 0.0 0.00 0.00 0.00 89 1014.5
20260902044504 75 123 0.0 0.0 0.00 0.00 0.00 89 1014.5
20260902043004 75 123 0.0 0.0 0.00 0.00 0.00 89 1014.5
20260902041505 75 123 0.0 0.0 0.00 0.00 0.00 89 1014.6
20260902040004 75 123 0.0 0.0 0.00 0.00 0.00 89 1014.6
20260902034504 76 123 0.0 0.0 0.00 0.00 0.00 88 1014.6
20260902033004 76 123 0.0 0.0 0.00 0.00 0.00 88 1014.6
20260902031503 76 123 0.0 0.0 0.00 0.00 0.00 87 1014.6
20260902030004 76 123 0.0 0.0 0.00 0.00 0.00 87 1014.6
20260902024503 76 123 0.0 0.0 0.00 0.00 0.00 87 1014.6
20260902023004 77 123 0.0 0.0 0.00 0.00 0.00 86 1014.5
20260902021504 77 123 0.0 0.0 0.00 0.00 0.00 85 1014.5
20260902020004 78 123 0.0 0.0 0.00 0.00 0.00 85 1014.4
20260902014503 78 123 0.0 0.0 0.00 0.00 0.00 85 1014.3
20260902013004 78 121 0.0 0.0 0.00 0.00 0.00 84 1014.3
20260902011504 79 121 0.0 0.0 0.00 0.00 0.00 85 1014.1
20260902004504 80 121 0.0 0.0 0.00 0.00 0.00 83 1013.9
20260902003004 81 121 0.0 0.0 0.00 0.00 0.00 80 1014.0
20260901233004 85 121 0.0 0.0 0.00 0.00 0.00 75 1014.2
20260901231504 86 121 0.0 0.0 0.00 0.00 0.00 74 1014.2
20260901230004 87 121 0.0 0.0 0.00 0.00 0.00 73 1014.2
20260901223005 89 121 0.0 0.0 0.00 0.00 0.00 69 1014.2
20260901221504 89 147 0.0 2.0 0.00 0.00 0.00 67 1014.2
20260901220004 90 72 0.0 2.0 0.00 0.00 0.00 67 1014.2
20260901214504 90 55 0.0 0.0 0.00 0.00 0.00 66 1014.1
20260901211504 91 79 0.0 2.0 0.00 0.00 0.00 64 1014.1
20260901204504 92 60 1.0 3.0 0.00 0.00 0.00 60 1014.2
20260901203004 92 252 0.0 2.0 0.00 0.00 0.00 63 1014.2
20260901201504 93 269 0.0 3.0 0.00 0.00 0.00 62 1014.2
20260901200006 94 262 0.0 3.0 0.00 0.00 0.00 62 1014.2
20260901194503 93 226 2.0 3.0 0.00 0.00 0.00 61 1014.3
20260901193004 94 263 1.0 3.0 0.00 0.00 0.00 62 1014.5
20260901191504 93 238 1.0 3.0 0.00 0.00 0.00 60 1014.6
20260901190005 93 263 0.0 3.0 0.00 0.00 0.00 63 1014.9
20260901184504 93 78 1.0 2.0 0.00 0.00 0.00 65 1015.0
20260901183005 93 217 1.0 2.0 0.00 0.00 0.00 65 1015.1
20260901180004 92 245 0.0 3.0 0.00 0.00 0.00 69 1015.3
20260901174504 91 259 0.0 2.0 0.00 0.00 0.00 66 1015.5
20260901173004 90 249 0.0 3.0 0.00 0.00 0.00 69 1015.6
20260901171504 90 252 0.0 1.0 0.00 0.00 0.00 69 1015.7
20260901164504 89 78 0.0 2.0 0.00 0.00 0.00 69 1015.9
20260901163004 88 247 0.0 3.0 0.00 0.00 0.00 70 1016.0
20260901161504 88 269 0.0 3.0 0.00 0.00 0.00 71 1015.9
20260901160004 87 256 0.0 3.0 0.00 0.00 0.00 72 1016.1
20260901153004 86 250 0.0 2.0 0.00 0.00 0.00 75 1016.1
20260901151503 85 218 0.0 3.0 0.00 0.00 0.00 77 1016.1
20260901141504 81 85 0.0 2.0 0.00 0.00 0.00 81 1016.4
20260901140004 80 83 0.0 2.0 0.00 0.00 0.00 83 1016.4
20260901134504 78 78 0.0 0.0 0.00 0.00 0.00 86 1016.4
20260901133004 77 78 0.0 0.0 0.00 0.00 0.00 88 1016.4
20260901131503 76 78 0.0 0.0 0.00 0.00 0.00 91 1016.4
20260901130004 75 78 0.0 0.0 0.00 0.00 0.00 91 1016.5
20260901124505 74 78 0.0 0.0 0.00 0.00 0.00 92 1016.5
20260901123004 73 78 0.0 0.0 0.00 0.00 0.00 94 1016.4
20260901120004 72 78 0.0 0.0 0.00 0.00 0.00 94 1016.3
20260901114503 72 78 0.0 0.0 0.00 0.00 0.00 94 1016.2
20260901113004 71 78 0.0 0.0 0.00 0.00 0.00 94 1015.8
20260901111504 71 78 0.0 0.0 0.00 0.00 0.00 93 1015.6
20260901110004 71 78 0.0 0.0 0.00 0.00 0.00 93 1015.6
20260901104504 71 78 0.0 0.0 0.00 0.00 0.00 93 1015.5